Radiation Dose at Monitoring Post of Fukushima Daini Nuclear Power Station
Date,Time,MP-1(microSv/h),MP-2(microSv/h),MP-3(microSv/h),MP-4(microSv/h),MP-5(microSv/h),MP-6(microSv/h),MP-7(microSv/h),Wind Direction,Wind Velocity(m/s),Rain
2019/05/11,00:00,0.200,0.188,0.306,0.285,0.275,0.154,0.094,-,CALM,No
2019/05/11,00:10,0.201,0.189,0.307,0.287,0.276,0.153,0.094,-,CALM,No
2019/05/11,00:20,0.202,0.189,0.306,0.287,0.275,0.152,0.094,northeast,1.1,No
2019/05/11,00:30,0.199,0.188,0.306,0.286,0.277,0.154,0.094,-,CALM,No
2019/05/11,00:40,0.200,0.188,0.305,0.288,0.276,0.153,0.094,east-northeast,1.5,No
2019/05/11,00:50,0.200,0.189,0.307,0.284,0.276,0.154,0.094,northeast,2.4,No
2019/05/11,01:00,0.200,0.189,0.307,0.287,0.276,0.153,0.093,north,2.4,No
2019/05/11,01:10,0.201,0.189,0.305,0.287,0.276,0.152,0.095,-,CALM,No
2019/05/11,01:20,0.200,0.190,0.305,0.286,0.276,0.154,0.094,-,CALM,No
2019/05/11,01:30,0.201,0.189,0.305,0.287,0.275,0.153,0.095,-,CALM,No
2019/05/11,01:40,0.201,0.189,0.306,0.286,0.277,0.154,0.094,north-northwest,6.0,No
2019/05/11,01:50,0.201,0.189,0.305,0.287,0.275,0.154,0.094,north,6.0,No
2019/05/11,02:00,0.201,0.188,0.306,0.289,0.275,0.153,0.094,north-northwest,5.2,No
2019/05/11,02:10,0.200,0.189,0.307,0.286,0.277,0.153,0.093,north-northwest,6.0,No
2019/05/11,02:20,0.201,0.188,0.307,0.287,0.274,0.154,0.094,north-northwest,5.9,No
2019/05/11,02:30,0.200,0.187,0.306,0.286,0.276,0.153,0.094,north-northwest,6.2,No
2019/05/11,02:40,0.201,0.189,0.307,0.286,0.276,0.154,0.093,north-northwest,6.2,No
2019/05/11,02:50,0.199,0.188,0.307,0.287,0.277,0.153,0.094,north-northwest,6.0,No
2019/05/11,03:00,0.199,0.188,0.306,0.287,0.275,0.152,0.093,north-northwest,5.9,No
2019/05/11,03:10,0.201,0.188,0.306,0.286,0.274,0.152,0.094,north-northwest,6.0,No
2019/05/11,03:20,0.200,0.187,0.305,0.286,0.278,0.153,0.093,north-northwest,5.7,No
2019/05/11,03:30,0.201,0.189,0.306,0.286,0.274,0.152,0.093,north-northwest,6.3,No
2019/05/11,03:40,0.201,0.188,0.306,0.286,0.275,0.153,0.093,north-northwest,5.4,No
2019/05/11,03:50,0.201,0.188,0.305,0.287,0.275,0.153,0.093,north,5.5,No
2019/05/11,04:00,0.200,0.189,0.306,0.287,0.275,0.151,0.094,north,5.4,No
2019/05/11,04:10,0.200,0.188,0.306,0.287,0.277,0.152,0.093,north,6.2,No
2019/05/11,04:20,0.201,0.187,0.307,0.287,0.274,0.153,0.094,north,6.7,No
2019/05/11,04:30,0.200,0.189,0.306,0.285,0.276,0.153,0.094,north,7.0,No
2019/05/11,04:40,0.201,0.189,0.306,0.287,0.277,0.153,0.093,north,5.3,No
2019/05/11,04:50,0.201,0.189,0.307,0.286,0.276,0.153,0.094,north-northwest,7.4,No
2019/05/11,05:00,0.200,0.189,0.306,0.286,0.277,0.152,0.094,north-northwest,7.4,No
2019/05/11,05:10,0.201,0.187,0.305,0.289,0.276,0.153,0.094,north-northwest,7.1,No
2019/05/11,05:20,0.201,0.188,0.306,0.286,0.276,0.153,0.093,north-northwest,7.1,No
2019/05/11,05:30,0.201,0.189,0.305,0.287,0.276,0.153,0.093,north-northwest,8.4,No
2019/05/11,05:40,0.200,0.188,0.305,0.287,0.274,0.152,0.093,north-northwest,8.1,No
2019/05/11,05:50,0.201,0.188,0.306,0.287,0.277,0.153,0.093,northwest,8.5,No
2019/05/11,06:00,0.200,0.188,0.304,0.287,0.274,0.153,0.092,north-northwest,8.2,No
2019/05/11,06:10,0.200,0.187,0.307,0.286,0.277,0.151,0.093,north-northwest,6.8,No
2019/05/11,06:20,0.199,0.188,0.305,0.286,0.274,0.152,0.092,northwest,5.2,No
2019/05/11,06:30,0.201,0.187,0.306,0.287,0.275,0.152,0.093,north-northwest,5.7,No
2019/05/11,06:40,0.200,0.188,0.305,0.283,0.274,0.151,0.093,north-northwest,5.7,No
2019/05/11,06:50,0.200,0.186,0.305,0.285,0.275,0.151,0.093,north-northwest,6.2,No
2019/05/11,07:00,0.200,0.188,0.307,0.284,0.275,0.153,0.093,north-northwest,5.9,No
2019/05/11,07:10,0.200,0.187,0.305,0.285,0.274,0.152,0.092,north-northwest,4.8,No
2019/05/11,07:20,0.200,0.188,0.304,0.284,0.277,0.152,0.093,north-northwest,4.4,No
2019/05/11,07:30,0.200,0.187,0.304,0.287,0.275,0.152,0.092,north-northwest,4.2,No
2019/05/11,07:40,0.200,0.188,0.302,0.284,0.276,0.151,0.092,north-northwest,4.0,No
2019/05/11,07:50,0.199,0.186,0.305,0.282,0.274,0.151,0.093,north-northwest,3.7,No
2019/05/11,08:00,0.199,0.188,0.304,0.284,0.274,0.152,0.093,north-northwest,2.8,No
2019/05/11,08:10,0.199,0.186,0.306,0.284,0.276,0.151,0.093,north-northwest,3.0,No
2019/05/11,08:20,0.200,0.187,0.306,0.283,0.272,0.151,0.094,north,2.5,No
2019/05/11,08:30,0.198,0.187,0.305,0.284,0.275,0.152,0.092,north,3.2,No
2019/05/11,08:40,0.200,0.186,0.305,0.286,0.274,0.151,0.094,north-northeast,3.6,No
2019/05/11,08:50,0.199,0.188,0.306,0.283,0.274,0.152,0.092,north,3.3,No
2019/05/11,09:00,0.199,0.186,0.304,0.282,0.276,0.152,0.092,north,3.5,No
2019/05/11,09:10,0.199,0.188,0.305,0.284,0.273,0.151,0.093,north-northeast,4.0,No
2019/05/11,09:20,0.199,0.187,0.306,0.286,0.275,0.152,0.092,north-northeast,3.9,No
2019/05/11,09:30,0.199,0.187,0.306,0.283,0.274,0.151,0.092,north-northeast,3.2,No
2019/05/11,09:40,0.199,0.187,0.304,0.281,0.272,0.152,0.092,north-northeast,4.5,No
2019/05/11,09:50,0.199,0.188,0.307,0.285,0.277,0.152,0.092,north-northeast,3.9,No
2019/05/11,10:00,0.199,0.186,0.305,0.285,0.273,0.151,0.093,north,3.5,No
2019/05/11,10:10,0.199,0.188,0.305,0.284,0.273,0.152,0.092,north,5.3,No
2019/05/11,10:20,0.199,0.186,0.305,0.283,0.275,0.152,0.093,north,5.9,No
2019/05/11,10:30,0.200,0.187,0.302,0.283,0.276,0.151,0.093,north,6.5,No
2019/05/11,10:40,0.199,0.188,0.303,0.287,0.273,0.152,0.092,north,6.2,No
2019/05/11,10:50,0.201,0.187,0.305,0.284,0.276,0.152,0.093,north,6.4,No
2019/05/11,11:00,0.199,0.188,0.303,0.284,0.273,0.152,0.092,north,5.6,No
2019/05/11,11:10,0.201,0.188,0.306,0.287,0.277,0.152,0.093,north,5.0,No
2019/05/11,11:20,0.199,0.189,0.302,0.285,0.275,0.151,0.093,north,4.8,No
2019/05/11,11:30,0.201,0.186,0.304,0.283,0.272,0.152,0.092,north,4.4,No
2019/05/11,11:40,0.199,0.188,0.306,0.283,0.277,0.152,0.093,north-northeast,5.1,No
2019/05/11,11:50,0.200,0.185,0.304,0.287,0.276,0.151,0.093,north,4.9,No
2019/05/11,12:00,0.199,0.188,0.301,0.286,0.273,0.151,0.093,north,3.9,No
2019/05/11,12:10,0.201,0.188,0.308,0.284,0.276,0.151,0.093,north-northeast,4.1,No
2019/05/11,12:20,0.200,0.188,0.304,0.287,0.274,0.150,0.092,north-northeast,3.7,No
2019/05/11,12:30,0.199,0.188,0.303,0.285,0.275,0.152,0.093,north,3.2,No
2019/05/11,12:40,0.200,0.187,0.306,0.284,0.277,0.152,0.093,north-northeast,4.4,No
2019/05/11,12:50,0.200,0.187,0.304,0.287,0.272,0.151,0.093,north-northeast,3.1,No
2019/05/11,13:00,0.201,0.187,0.303,0.286,0.275,0.152,0.093,northeast,3.0,No
2019/05/11,13:10,0.198,0.188,0.307,0.282,0.276,0.152,0.092,north-northeast,3.3,No
2019/05/11,13:20,0.200,0.188,0.305,0.287,0.273,0.151,0.093,north-northeast,3.3,No
2019/05/11,13:30,0.199,0.188,0.305,0.287,0.274,0.152,0.092,northeast,2.8,No
2019/05/11,13:40,0.199,0.187,0.307,0.284,0.275,0.152,0.093,east-northeast,2.4,No
2019/05/11,13:50,0.200,0.188,0.303,0.285,0.273,0.151,0.092,northeast,3.2,No
2019/05/11,14:00,0.198,0.187,0.304,0.289,0.272,0.153,0.093,northeast,3.0,No
2019/05/11,14:10,0.200,0.188,0.306,0.284,0.277,0.152,0.093,north-northeast,1.8,No
2019/05/11,14:20,0.200,0.187,0.305,0.284,0.275,0.152,0.093,northeast,2.1,No
2019/05/11,14:30,0.200,0.188,0.304,0.288,0.273,0.153,0.093,northeast,1.8,No
2019/05/11,14:40,0.200,0.187,0.307,0.284,0.278,0.152,0.093,northeast,2.0,No
2019/05/11,14:50,0.198,0.188,0.304,0.285,0.276,0.151,0.092,north-northeast,1.1,No
2019/05/11,15:00,0.200,0.189,0.305,0.287,0.273,0.153,0.094,northeast,1.3,No
2019/05/11,15:10,0.199,0.187,0.306,0.284,0.275,0.151,0.093,east-northeast,1.2,No
2019/05/11,15:20,0.200,0.189,0.304,0.288,0.275,0.152,0.093,northeast,1.2,No
2019/05/11,15:30,0.199,0.188,0.306,0.285,0.273,0.152,0.093,northeast,0.9,No
2019/05/11,15:40,0.200,0.189,0.305,0.288,0.273,0.152,0.093,east,1.0,No
2019/05/11,15:50,0.200,0.189,0.308,0.286,0.276,0.153,0.093,east,1.2,No
2019/05/11,16:00,0.199,0.190,0.307,0.288,0.274,0.152,0.093,southeast,1.5,No
2019/05/11,16:10,0.201,0.187,0.308,0.286,0.273,0.152,0.093,southeast,2.0,No
2019/05/11,16:20,0.199,0.188,0.307,0.289,0.276,0.152,0.094,east-southeast,2.6,No
2019/05/11,16:30,0.201,0.189,0.306,0.287,0.273,0.152,0.093,southeast,2.2,No
2019/05/11,16:40,0.200,0.189,0.306,0.289,0.275,0.152,0.093,southeast,2.6,No
2019/05/11,16:50,0.201,0.189,0.309,0.287,0.276,0.151,0.093,south-southeast,3.0,No
2019/05/11,17:00,0.198,0.188,0.306,0.288,0.274,0.151,0.093,south-southeast,3.8,No
2019/05/11,17:10,0.201,0.188,0.308,0.287,0.276,0.152,0.093,south-southeast,3.5,No
2019/05/11,17:20,0.200,0.189,0.306,0.287,0.272,0.151,0.093,south-southeast,3.3,No
2019/05/11,17:30,0.201,0.188,0.307,0.288,0.277,0.154,0.092,south-southeast,3.6,No
2019/05/11,17:40,0.200,0.188,0.307,0.287,0.275,0.151,0.093,south-southeast,2.0,No
2019/05/11,17:50,0.202,0.189,0.306,0.286,0.277,0.152,0.093,northeast,0.6,No
2019/05/11,18:00,0.201,0.188,0.307,0.287,0.276,0.152,0.093,northeast,2.6,No
2019/05/11,18:10,0.201,0.189,0.306,0.286,0.277,0.152,0.093,north,4.1,No
2019/05/11,18:20,0.201,0.188,0.306,0.288,0.276,0.152,0.093,north,4.4,No
2019/05/11,18:30,0.199,0.188,0.306,0.287,0.276,0.153,0.093,north,4.5,No
2019/05/11,18:40,0.201,0.188,0.307,0.288,0.276,0.151,0.093,north-northwest,4.3,No
2019/05/11,18:50,0.200,0.189,0.308,0.287,0.274,0.153,0.093,north,4.8,No
2019/05/11,19:00,0.200,0.188,0.306,0.286,0.278,0.152,0.093,north,4.4,No
2019/05/11,19:10,0.201,0.189,0.306,0.287,0.276,0.152,0.093,north,5.5,No
2019/05/11,19:20,0.200,0.189,0.305,0.287,0.275,0.152,0.093,north,4.6,No
2019/05/11,19:30,0.200,0.187,0.305,0.287,0.277,0.152,0.092,north,6.2,No
2019/05/11,19:40,0.200,0.187,0.308,0.287,0.274,0.153,0.093,north,6.2,No
2019/05/11,19:50,0.201,0.188,0.306,0.287,0.277,0.152,0.093,north,6.4,No
2019/05/11,20:00,0.201,0.188,0.305,0.288,0.275,0.152,0.092,north-northwest,6.7,No
2019/05/11,20:10,0.200,0.188,0.307,0.288,0.276,0.152,0.094,north,6.2,No
2019/05/11,20:20,0.200,0.189,0.307,0.286,0.276,0.152,0.093,north,6.3,No
2019/05/11,20:30,0.200,0.189,0.307,0.286,0.276,0.152,0.092,north-northwest,6.5,No
2019/05/11,20:40,0.199,0.187,0.306,0.286,0.277,0.152,0.093,north,5.4,No
2019/05/11,20:50,0.200,0.188,0.306,0.287,0.275,0.153,0.093,north,7.0,No
2019/05/11,21:00,0.201,0.188,0.308,0.288,0.276,0.152,0.093,north,6.5,No
2019/05/11,21:10,0.201,0.188,0.306,0.287,0.276,0.152,0.092,north,6.6,No
2019/05/11,21:20,0.201,0.189,0.306,0.287,0.274,0.151,0.093,north,5.2,No
2019/05/11,21:30,0.199,0.187,0.307,0.287,0.276,0.151,0.093,north,5.4,No
2019/05/11,21:40,0.201,0.189,0.306,0.288,0.274,0.152,0.093,north,5.7,No
2019/05/11,21:50,0.201,0.188,0.308,0.286,0.276,0.153,0.092,north-northwest,5.1,No
2019/05/11,22:00,0.201,0.188,0.307,0.287,0.275,0.153,0.094,north-northwest,6.4,No
2019/05/11,22:10,0.200,0.188,0.307,0.287,0.275,0.152,0.093,north-northwest,5.1,No
2019/05/11,22:20,0.200,0.189,0.308,0.286,0.277,0.153,0.092,north-northwest,6.0,No
2019/05/11,22:30,0.200,0.187,0.306,0.288,0.274,0.153,0.093,north-northwest,5.9,No
2019/05/11,22:40,0.200,0.188,0.306,0.288,0.276,0.151,0.092,north-northwest,5.9,No
2019/05/11,22:50,0.200,0.189,0.308,0.288,0.276,0.152,0.093,north-northwest,6.2,No
2019/05/11,23:00,0.200,0.187,0.308,0.287,0.274,0.153,0.093,north-northwest,5.4,No
2019/05/11,23:10,0.200,0.188,0.306,0.286,0.277,0.153,0.092,north-northwest,4.3,No
2019/05/11,23:20,0.199,0.189,0.307,0.286,0.275,0.153,0.092,north-northwest,4.5,No
2019/05/11,23:30,0.200,0.187,0.306,0.287,0.275,0.152,0.092,north-northwest,4.3,No
2019/05/11,23:40,0.199,0.188,0.308,0.284,0.275,0.152,0.092,northwest,4.6,No
2019/05/11,23:50,0.200,0.188,0.306,0.288,0.274,0.152,0.093,north-northwest,3.6,No
